[[{"header":{"parameterUnit":"m.s-1","parameterCategory":1,"la1":30.2991,"la2":30.254,"lo1":-89.0895,"lo2":-89.0444,"dy":0.0017,"dx":0.0017,"nx":28,"ny":28,"refTime":"2023-09-28T21:00:00:Z","depth":0,"parameterNumber":2,"parameterNumberName":"U-component_of_WINDS"},"data":[0,0,0,0,0,0,0,0,0,0,0,0,0,0,0,0,0,0,0,0,0,0,0,0,0,0,0,0,0,0,0,0,0,0,0,0,0,0,0,0,0,0,0,0,0,0,0,0,0,0,0,0,0,0,0,0,0,0,-4.657,-4.657,0,-4.6529,-4.6529,-4.6528,-4.6327,-4.6323,-4.6318,-4.6313,-4.6275,-4.6278,-4.6281,0,0,0,0,0,0,0,0,0,0,0,0,0,-4.6478,-4.6481,-4.657,-4.657,-4.6569,-4.6529,-4.6529,-4.6528,-4.6328,-4.6322,-4.6317,-4.6311,-4.6273,-4.6277,-4.6282,0,0,0,0,0,0,0,0,0,0,0,0,0,-4.6486,-4.6482,-4.6571,-4.6465,-4.6455,-4.6529,-4.6529,-4.6528,-4.6329,-4.6322,-4.6315,-4.6309,-4.6272,-4.6277,-4.6282,-4.6456,0,0,-4.6298,-4.63,0,0,0,0,0,0,0,0,-4.6486,-4.649,-4.6481,-4.6472,-4.6461,-4.6426,-4.6482,-4.6504,-4.6331,-4.6377,-4.6313,-4.6305,-4.6331,-4.6331,-4.6339,-4.6455,-4.6453,-4.6298,-4.6301,-4.6303,-4.6305,0,0,0,0,0,0,0,-4.6485,-4.649,-4.6554,-4.6481,-4.6469,-4.642,-4.6413,-4.6485,-4.6395,-4.6373,-4.6358,-4.6356,-4.6324,-4.6334,-4.6336,-4.6452,-4.6298,-4.6303,-4.6306,-4.6308,-4.6709,-4.6716,0,0,0,0,0,0,-4.6499,-4.6491,-4.6555,-4.6553,-4.6456,-4.6428,-4.642,-4.6445,-4.6393,-4.6379,-4.6362,-4.6346,-4.6329,-4.6331,-4.6334,-4.6534,-4.6303,-4.6308,-4.6311,-4.6701,-4.671,-4.6719,0,0,0,0,0,0,-4.6498,-4.6507,-4.6557,-4.6518,-4.6521,-4.6437,-4.6466,-4.6448,-4.6457,-4.6385,-4.6368,-4.6389,-4.6324,-4.6327,-4.6427,-4.653,-4.631,-4.6315,-4.6692,-4.6704,-4.6714,-4.6937,0,0,0,0,0,0,-4.6496,-4.6508,-4.6573,-4.6521,-4.6523,-4.6651,-4.6472,-4.6452,-4.6466,-4.6446,-4.6406,-4.6392,-4.6318,-4.6421,-4.6432,-4.6533,-4.6319,-4.6683,-4.6697,-4.6711,-4.692,-4.6955,-4.6985,0,0,0,0,0,-4.6494,-4.6638,-4.6577,-4.6586,-4.6603,-4.6657,-4.6658,-4.6569,-4.6476,-4.654,-4.6494,-4.6394,-4.6517,-4.6433,-4.6444,-4.6548,-4.6676,-4.6693,-4.671,-4.6906,-4.6948,-4.6984,0,0,0,0,0,0,-4.6705,-4.6629,-4.6561,-4.6692,-4.6683,-4.6623,-4.6702,-4.6617,-4.6634,-4.6615,-4.6504,-4.6497,-4.6614,-4.6591,-4.6498,-4.6714,-4.6579,-4.66,-4.6725,-4.6764,-4.6796,-4.6799,-4.6323,0,0,0,0,0,-4.6767,-4.6817,-4.6748,-4.687,-4.6869,-4.6787,-4.6807,-4.6739,-4.6725,-4.672,-4.6681,-4.6672,-4.6708,-4.6735,-4.6765,-4.6916,-4.6905,-4.6994,-4.7026,-4.7052,-4.7071,-4.715,-4.7188,-4.6775,-4.6775,-4.6774,0,0,-4.6896,-4.686,-4.6898,-4.6912,-4.6896,-4.6951,-4.6785,-4.685,-4.6889,-4.673,-4.6822,-4.6794,-4.6776,-4.6903,-4.6956,-4.6887,-4.7183,-4.7074,-4.7096,-4.71,-4.7171,-4.721,-4.7245,-4.6786,-4.6784,-4.6782,0,0,-4.7157,-4.7136,-4.7235,-4.7222,-4.72,-4.7145,-4.7169,-4.7122,-4.7097,-4.7187,-4.7069,-4.7115,-4.718,-4.7173,-4.7177,-4.7437,-4.7345,-4.7449,-4.7617,-4.7695,-4.7727,-4.7756,-4.7848,-4.7883,-4.7468,-4.7469,-4.7469,0,-4.732,-4.7396,-4.7297,-4.7369,-4.7379,-4.7237,-4.7337,-4.733,-4.732,-4.7331,-4.7253,-4.7332,-4.731,-4.7433,-4.7496,-4.7505,-4.7529,-4.7453,-4.7731,-4.7758,-4.7783,-4.787,-4.7905,-4.7482,-4.748,-4.7479,-4.7478,0,-4.7597,-4.7652,-4.7735,-4.7728,-4.7747,-4.7833,-4.7748,-4.7779,-4.771,-4.7663,-4.7757,-4.7726,-4.7747,-4.7771,-4.7705,-4.7885,-4.7842,-4.775,-4.7612,-4.7837,-4.7917,-4.7949,-4.75,-4.7496,-4.7492,-4.7489,0,0,-4.7991,-4.7927,-4.7959,-4.7954,-4.7919,-4.796,-4.8041,-4.8059,-4.8089,-4.8087,-4.8152,-4.821,-4.8124,-4.813,-4.8061,-4.8129,-4.8337,-4.8027,-4.8025,-4.8086,-4.8534,-4.8604,-4.8644,-4.8276,-4.8282,-4.8287,-4.8535,0,-4.8241,-4.8373,-4.8286,-4.8432,-4.8482,-4.8347,-4.8417,-4.8404,-4.8363,-4.84,-4.8354,-4.8397,-4.828,-4.8282,-4.8344,-4.8299,-4.8425,-4.8279,-4.8336,-4.8339,-4.8345,-4.8686,-4.876,-4.8996,-4.8566,-4.8571,-4.8575,0,-4.855,-4.856,-4.8712,-4.8666,-4.8684,-4.8748,-4.8759,-4.8795,-4.8778,-4.8743,-4.875,-4.8664,-4.874,-4.8605,-4.8709,-4.8612,-4.863,-4.8611,-4.8618,-4.862,-4.8471,-4.8697,-4.9069,-4.9105,-4.8623,-4.8619,-4.8616,0,-4.8822,-4.8874,-4.897,-4.897,-4.892,-4.8969,-4.895,-4.8926,-4.8943,-4.8953,-4.8963,-4.8982,-4.8993,-4.9011,-4.8933,-4.8841,-4.9047,-4.8905,-4.9021,-4.9024,-4.907,-4.9069,-4.9451,-4.9083,-4.9082,-4.9082,-4.9081,0,-4.911,-4.9208,-4.9092,-4.9152,-4.9257,-4.9157,-4.9265,-4.9232,-4.9212,-4.9264,-4.9149,-4.9201,-4.9094,-4.9135,-4.9075,-4.917,-4.9176,-4.9151,-4.9133,-4.9161,-4.9164,-4.9171,-4.9153,-4.9091,-4.9089,-4.9087,-4.9086,0,-4.9432,-4.9358,-4.9455,-4.9399,-4.9387,-4.9468,-4.9421,-4.9474,-4.9425,-4.9492,-4.9502,-4.9425,-4.9467,-4.9391,-4.9424,-4.9383,-4.9517,-4.9474,-4.9523,-4.951,-4.963,-4.962,-5.0031,-5.0079,-4.9681,-4.9685,-4.9688,0,-4.962,-4.9692,-4.9644,-4.967,-4.9658,-4.9701,-4.9717,-4.9622,-4.9644,-4.963,-4.9686,-4.9718,-4.9738,-4.9812,-4.976,-4.9785,-4.9742,-4.9884,-4.9745,-4.977,-4.9744,-4.9741,-4.9748,-4.9913,-4.9918,-4.9922,-4.9925,0,-4.9963,-4.9923,-4.995,-4.9966,-4.9989,-4.9996,-4.9996,-5.0024,-4.9923,-4.9954,-4.9995,-5.0011,-5.0044,-5.0078,-5.009,-5.0071,-4.9983,-4.9969,-4.9997,-5.0026,-5.0051,-5.0039,-4.9601,-4.996,-4.9957,-4.9954,-4.9952,-4.9951,-5.0223,-5.0281,-5.0256,-5.029,-5.028,-5.0282,-5.033,-5.0286,-5.0318,-5.0336,-5.0278,-5.0333,-5.0314,-5.0321,-5.0313,-5.0355,-5.0292,-5.0333,-5.0343,-5.0355,-5.0374,-5.0045,-5.0357,-5.0356,-5.0355,-5.0354,-5.0353,0,-5.056,-5.0537,-5.057,-5.0572,-5.06,-5.0512,-5.0507,-5.0537,-5.0586,-5.0575,-5.0598,-5.0645,-5.0678,-5.0628,-5.0653,-5.0696,-5.0656,-5.0706,-5.0701,-5.0699,-5.0429,-5.0402,-5.0738,-5.0738,-5.0738,-5.0738,-5.0738,-5.0737,-5.0738,-5.083,-5.0788,-5.0874,-5.085,-5.0902,-5.0907,-5.0909,-5.09,-5.0958,-5.0983,-5.095,-5.0925,-5.0946,-5.0972,-5.0957,-5.0971,-5.1036,-5.1007,-5.0755,-5.0718,-5.0682,-5.0656,-5.104,-5.104,-5.1273,-5.1275,-5.1277]},{"header":{"parameterUnit":"m.s-1","parameterCategory":1,"la1":30.2991,"la2":30.254,"lo1":-89.0895,"lo2":-89.0444,"dy":0.0017,"dx":0.0017,"nx":28,"ny":28,"refTime":"2023-09-28T21:00:00:Z","depth":0,"parameterNumber":3,"parameterNumberName":"V-component_of_WINDS"},"data":[0,0,0,0,0,0,0,0,0,0,0,0,0,0,0,0,0,0,0,0,0,0,0,0,0,0,0,0,0,0,0,0,0,0,0,0,0,0,0,0,0,0,0,0,0,0,0,0,0,0,0,0,0,0,0,0,0,0,-2.3402,-2.3403,0,-2.3466,-2.3466,-2.3467,-2.3472,-2.3472,-2.3471,-2.347,-2.3534,-2.3536,-2.3538,0,0,0,0,0,0,0,0,0,0,0,0,0,-2.3281,-2.3283,-2.3402,-2.3403,-2.3403,-2.3466,-2.3466,-2.3467,-2.3472,-2.3472,-2.3471,-2.347,-2.3533,-2.3536,-2.3539,0,0,0,0,0,0,0,0,0,0,0,0,0,-2.3338,-2.3284,-2.3402,-2.3413,-2.3415,-2.3465,-2.3467,-2.3468,-2.3473,-2.3472,-2.3471,-2.347,-2.3532,-2.3536,-2.3539,-2.3581,0,0,-2.355,-2.3551,0,0,0,0,0,0,0,0,-2.3335,-2.3342,-2.3411,-2.3413,-2.3415,-2.346,-2.3447,-2.3506,-2.3473,-2.3451,-2.347,-2.3469,-2.351,-2.3515,-2.3529,-2.3584,-2.3587,-2.355,-2.3552,-2.3554,-2.3555,0,0,0,0,0,0,0,-2.3331,-2.3339,-2.3427,-2.3412,-2.3414,-2.3414,-2.3421,-2.3458,-2.3485,-2.3453,-2.3453,-2.3461,-2.3511,-2.3526,-2.3531,-2.3588,-2.355,-2.3553,-2.3555,-2.3556,-2.3678,-2.3679,0,0,0,0,0,0,-2.3325,-2.3336,-2.3425,-2.3429,-2.3371,-2.3417,-2.3425,-2.3447,-2.3485,-2.349,-2.3462,-2.3461,-2.3521,-2.3527,-2.3533,-2.3584,-2.3554,-2.3557,-2.3559,-2.3677,-2.3678,-2.3679,0,0,0,0,0,0,-2.3322,-2.3333,-2.3422,-2.3383,-2.3394,-2.3421,-2.3444,-2.3448,-2.3464,-2.3492,-2.3496,-2.3472,-2.352,-2.3528,-2.3569,-2.3586,-2.3558,-2.3562,-2.3676,-2.3677,-2.3679,-2.3686,0,0,0,0,0,0,-2.3319,-2.3332,-2.3349,-2.3383,-2.3396,-2.3458,-2.3446,-2.345,-2.347,-2.3469,-2.3503,-2.3508,-2.352,-2.3564,-2.3572,-2.359,-2.3564,-2.3674,-2.3676,-2.3678,-2.3684,-2.3688,-2.3691,0,0,0,0,0,-2.3314,-2.3348,-2.335,-2.3361,-2.3419,-2.3459,-2.3466,-2.348,-2.3471,-2.3488,-2.3506,-2.3507,-2.3583,-2.3568,-2.3578,-2.3597,-2.3673,-2.3676,-2.3678,-2.3683,-2.3687,-2.369,0,0,0,0,0,0,-2.3315,-2.3353,-2.3355,-2.3402,-2.3427,-2.346,-2.3482,-2.3485,-2.3513,-2.3511,-2.3527,-2.3534,-2.3574,-2.3589,-2.3572,-2.3639,-2.3627,-2.3631,-2.3627,-2.3631,-2.3634,-2.3629,-2.3567,0,0,0,0,0,-2.3321,-2.3352,-2.3383,-2.3421,-2.3433,-2.3455,-2.3473,-2.3482,-2.3509,-2.3519,-2.354,-2.3565,-2.3595,-2.3614,-2.3643,-2.3687,-2.3693,-2.3704,-2.3708,-2.371,-2.3714,-2.3736,-2.3741,-2.3688,-2.3688,-2.3688,0,0,-2.3333,-2.3357,-2.3376,-2.3421,-2.3442,-2.3472,-2.3464,-2.3497,-2.3519,-2.3524,-2.3563,-2.3579,-2.3608,-2.365,-2.367,-2.3665,-2.373,-2.3713,-2.3715,-2.3717,-2.3739,-2.3744,-2.3749,-2.369,-2.3689,-2.3689,0,0,-2.337,-2.3392,-2.3425,-2.3446,-2.3478,-2.3492,-2.3499,-2.3532,-2.3542,-2.3582,-2.3586,-2.3612,-2.3663,-2.3683,-2.37,-2.3742,-2.3743,-2.3751,-2.3767,-2.3789,-2.3793,-2.3797,-2.3811,-2.3816,-2.3755,-2.3755,-2.3755,0,-2.3381,-2.3427,-2.3442,-2.3474,-2.3493,-2.3499,-2.3532,-2.3551,-2.359,-2.3602,-2.3596,-2.3659,-2.3679,-2.3725,-2.3735,-2.3749,-2.3757,-2.3747,-2.3792,-2.3796,-2.3799,-2.3813,-2.3818,-2.3756,-2.3755,-2.3755,-2.3755,0,-2.3438,-2.347,-2.3493,-2.353,-2.3552,-2.3584,-2.3602,-2.3622,-2.3628,-2.3642,-2.3682,-2.3706,-2.3739,-2.375,-2.3757,-2.3797,-2.3792,-2.3789,-2.3777,-2.3805,-2.3817,-2.3823,-2.3756,-2.3756,-2.3756,-2.3756,0,0,-2.3478,-2.3522,-2.353,-2.3547,-2.3581,-2.3605,-2.3637,-2.367,-2.3686,-2.3712,-2.3738,-2.378,-2.3776,-2.3795,-2.3804,-2.3823,-2.3853,-2.3817,-2.3818,-2.3822,-2.3896,-2.3898,-2.3904,-2.3854,-2.3855,-2.3856,-2.3894,0,-2.3518,-2.3576,-2.3589,-2.3637,-2.3666,-2.3671,-2.3698,-2.3722,-2.3735,-2.3761,-2.3776,-2.3805,-2.3799,-2.381,-2.3829,-2.3845,-2.3868,-2.3843,-2.3877,-2.3878,-2.3869,-2.3911,-2.3913,-2.3948,-2.3899,-2.39,-2.39,0,-2.3573,-2.36,-2.3652,-2.368,-2.3693,-2.3717,-2.3747,-2.3772,-2.3798,-2.3806,-2.3826,-2.3833,-2.3864,-2.3851,-2.3894,-2.3876,-2.3891,-2.3901,-2.3902,-2.3906,-2.389,-2.3914,-2.3959,-2.3964,-2.3909,-2.3908,-2.3907,0,-2.3595,-2.3645,-2.3682,-2.3696,-2.3731,-2.3747,-2.3762,-2.3787,-2.3805,-2.3831,-2.3842,-2.3872,-2.3887,-2.3909,-2.3922,-2.3912,-2.3963,-2.3952,-2.397,-2.3969,-2.398,-2.3979,-2.4027,-2.3991,-2.3991,-2.3991,-2.3991,0,-2.3638,-2.3669,-2.3692,-2.3715,-2.3749,-2.3763,-2.3796,-2.3811,-2.3833,-2.3857,-2.3863,-2.3886,-2.3902,-2.3927,-2.3937,-2.397,-2.3977,-2.3984,-2.3986,-2.3983,-2.3982,-2.3993,-2.399,-2.3992,-2.3992,-2.3992,-2.3992,0,-2.3669,-2.3686,-2.3726,-2.3755,-2.3763,-2.3787,-2.3812,-2.3833,-2.3846,-2.3877,-2.3885,-2.3906,-2.3935,-2.395,-2.3987,-2.3993,-2.403,-2.4031,-2.4021,-2.4022,-2.4039,-2.4037,-2.4095,-2.4103,-2.4062,-2.4063,-2.4063,0,-2.3695,-2.3719,-2.375,-2.3767,-2.3783,-2.381,-2.3828,-2.3843,-2.3861,-2.3891,-2.3908,-2.3938,-2.3962,-2.4008,-2.4026,-2.4053,-2.4054,-2.4073,-2.4059,-2.4054,-2.4053,-2.4051,-2.4053,-2.4075,-2.4075,-2.4076,-2.4076,0,-2.3738,-2.3745,-2.3772,-2.38,-2.3822,-2.3845,-2.3868,-2.3881,-2.3899,-2.3919,-2.3949,-2.3968,-2.4005,-2.4033,-2.4062,-2.4076,-2.4078,-2.408,-2.4086,-2.4082,-2.4075,-2.4078,-2.4027,-2.4079,-2.4079,-2.4078,-2.4078,-2.4078,-2.3767,-2.3787,-2.3813,-2.3841,-2.386,-2.3881,-2.3902,-2.3917,-2.3943,-2.3974,-2.398,-2.4011,-2.4035,-2.4073,-2.4088,-2.4112,-2.4108,-2.4116,-2.4118,-2.412,-2.412,-2.4072,-2.4117,-2.4117,-2.4117,-2.4117,-2.4117,0,-2.3809,-2.3826,-2.3852,-2.3883,-2.3905,-2.3906,-2.3931,-2.3949,-2.3977,-2.3998,-2.4022,-2.4055,-2.4082,-2.4102,-2.4129,-2.4144,-2.4146,-2.4151,-2.415,-2.4153,-2.4122,-2.4114,-2.4149,-2.4149,-2.4149,-2.4149,-2.4149,-2.4149,-2.3834,-2.3869,-2.3878,-2.3921,-2.3937,-2.3968,-2.3982,-2.4,-2.4018,-2.4054,-2.4077,-2.409,-2.411,-2.4139,-2.4163,-2.4168,-2.4178,-2.4182,-2.4187,-2.4158,-2.4155,-2.4152,-2.4144,-2.4184,-2.4185,-2.4215,-2.4215,-2.4216]}]]